Regional Weather Roundup
Issued by NWS

Home | Current Version | Previous Version | Graphics & Text | Print | Product List | Glossary On
Versions: 1 2 3 4 5 6 7 8 9 10 11 12 13 14 15 16 17 18 19 20 21 22 23 24 25 26 27 28 29 30 31 32 33 34 35 36 37 38 39 40 41 42 43 44 45 46 47 48 49 50
000
ASUS43 KIND 212009
RWRIN

WEATHER ROUNDUP FOR INDIANA
NATIONAL WEATHER SERVICE INDIANAPOLIS IN
300 PM EST SAT JAN 21 2017

NOTE: "FAIR" INDICATES FEW OR NO CLOUDS BELOW 12,000 FEET WITH NO
SIGNIFICANT WEATHER AND/OR OBSTRUCTIONS TO VISIBILITY.

* - STATION DOES NOT REPORT WEATHER SUCH AS PRECIPITATION OR FOG.

+ - STATION NOT QUALITY CONTROLLED BY THE NATIONAL WEATHER SERVICE.
    USE DATA WITH CAUTION...ESPECIALLY DEWPOINT AND RELATIVE
    HUMIDITY OBSERVATIONS.

INZ001>003-010>013-019-020-212100-
NORTHWEST INDIANA

CITY           SKY/WX    TMP DP  RH WIND       PRES   REMARKS
GARY /AIRPORT/ MOSUNNY   63  46  55 S14G25    29.49S
KNOX *+        SUNNY     61  32  33 S13G22    29.50F
LA PORTE +     MOSUNNY   60  51  72 S14G21    29.50F
MICHIGAN CITY+ PTSUNNY   59  50  72 S10       29.49F
MONTICELLO +   SUNNY     62  51  66 S14       29.52F
RENSSELAER +   MOSUNNY   61  52  72 S16       29.50F
VALPARAISO     MOSUNNY   62  51  67 SW17      29.51S

$$

LMZ046-743>745-212100-
SOUTHERN LAKE MICHIGAN

STATION/POSITION TIME  TEMP    WIND        PRES    WAVE
                       AIR SEA DIR/SP/G            HT
                 (UTC) (F)     (DEG/KT/KT) (MB)    (FT)
BURNS HARBOR     1940   59     190/ 15/ 19  999.0F
MICHIGAN CITY    1940   59     150/ 12/ 14   N/A

$$

INZ004-005-014>016-021>024-212100-
NORTH CENTRAL INDIANA

CITY           SKY/WX    TMP DP  RH WIND       PRES   REMARKS
ELKHART        SUNNY     61  50  67 S17G23    29.51F
GOSHEN         SUNNY     61  49  64 S16       29.53F
LOGANSPORT +   SUNNY     61  52  72 S16       29.54F
PERU/GRISSOM   SUNNY     63  54  73 SW15      29.53F
ROCHESTER +    SUNNY     63  52  67 S14       29.53F
SOUTH BEND     SUNNY     60  50  69 S13       29.52F
WARSAW +       SUNNY     61  46  59 S7        29.53F

$$

INZ006>009-017-018-025>027-212100-
NORTHEAST INDIANA

CITY           SKY/WX    TMP DP  RH WIND       PRES   REMARKS
ANGOLA *+      MOSUNNY   59  54  82 S10       29.55F
AUBURN +       CLOUDY    61  50  67 SE3       29.57F
FORT WAYNE     PTSUNNY   62  52  69 S10       29.57F
HUNTINGTON +   MOSUNNY   61  52  72 S9        29.55F
KENDALLVILLE + MOSUNNY   59  52  76 S12G20    29.56F

$$

INZ028-029-035-036-043>045-051>053-212100-
WEST CENTRAL INDIANA

CITY           SKY/WX    TMP DP  RH WIND       PRES   REMARKS
CRAWFORDSVL +  SUNNY     61  55  80 S13       29.53F
GREENCASTLE +  MOSUNNY   64  52  63 SW6       29.55F
LAFAYETTE      SUNNY     62  51  67 SW10      29.52F
TERRE HAUTE    SUNNY     64  52  64 SW14      29.54F

$$

INZ030>032-037>040-046>048-054>057-064-065-212100-
CENTRAL INDIANA

CITY           SKY/WX    TMP DP  RH WIND       PRES   REMARKS
ANDERSON       SUNNY     63  54  72 S12G17    29.59S
CP ATTERBURY + MOSUNNY   64  54  68 S8        29.58F
COLUMBUS       SUNNY     63  55  77 S10G21    29.60F
FISHERS *+     SUNNY     63  57  82 S9G18     29.55F
FRANKFORT +    MOSUNNY   65  56  72 SW10G16   29.55F
GREENWOOD *+   SUNNY     64  56  75 S9        29.57F
INDIANAPOLIS   MOSUNNY   66  53  63 S12       29.54F
-EAGLE CREEK   SUNNY     66  52  60 S12       29.54F
KOKOMO +       SUNNY     63  53  70 S13       29.55F
MARION +       MOSUNNY   63  54  72 SW12G18   29.57S
MT COMFORT *+  MOSUNNY   61  54  77 S12       29.57F
SHELBYVILLE    SUNNY     62  53  72 S15       29.57F
ZIONSVILLE +   SUNNY     63  52  67 S13       29.56S

$$

INZ033-034-041-042-049-050-058-059-212100-
EAST CENTRAL INDIANA

CITY           SKY/WX    TMP DP  RH WIND       PRES   REMARKS
MUNCIE         PTSUNNY   64  51  62 S12G20    29.56F

$$

INZ060-061-067>069-081>083-085>088-212100-
SOUTHWEST INDIANA

CITY           SKY/WX    TMP DP  RH WIND       PRES   REMARKS
EVANSVILLE     SUNNY     69  51  52 SW16      29.58F
HUNTINGBURG *+ MOSUNNY   66  54  65 S12       29.60S
WASHINGTON +   SUNNY     66  51  57 SW14G20   29.56F

$$

INZ062-063-066-070>080-084-089>092-212100-
SOUTH CENTRAL AND SOUTHEAST INDIANA

CITY           SKY/WX    TMP DP  RH WIND       PRES   REMARKS
BLOOMINGTON    SUNNY     66  52  60 SW16G22   29.56F
MADISON *+     CLOUDY    63  54  72 S7        29.63F
NORTH VERNON + PTSUNNY   63  55  77 S9        29.62F
SEYMOUR +      PTSUNNY   64  54  68 S12       29.60F

$$





USA.gov is the U.S. government's official web portal to all federal, state and local government web resources and services.